Location: Marse
(42.1502°N, 110.9866°W)
Time: 22:32:04
(UTC+00:00)

QB50P2 - Pass Details

Date: 30 June 2022
Orbit: 590 x 605 km, 97.9° (Epoch: 18 August)

Event Time Altitude Azimuth Distance (km) Brightness Sun altitude
Rises 07:58:37 0° 26° (NNE) 2,859 ? -24.3°
Reaches altitude 10° 08:01:08 10° 40° (NE) 1,954 ? -24.2°
Maximum altitude 08:04:36 24° 95° (E) 1,261 ? -24.1°
Enters shadow 08:04:48 24° 99° (E) 1,263 ? -24.1°
